This is the latest recevied weather packets stored in our database for station/object KB0RPJ. If no packets are shown the sender has not sent any weather packets the latest 10 day(s).
| Time | Temp. | Humidity | Pressure | Rain* | Wind** | Luminosity | Snow |
|---|---|---|---|---|---|---|---|
| 1777506005 | 15° C | 44% | 1017.5 hPa | 0 mm | - | 66 W/m² | - |
| 1777505705 | 15.56° C | 43% | 1017.5 hPa | 0 mm | - | 68 W/m² | - |
| 1777505405 | 15.56° C | 43% | 1017.5 hPa | 0 mm | - | 70 W/m² | - |
| 1777505117 | 15.56° C | 44% | 1017.5 hPa | 0 mm | - | 75 W/m² | - |
| 1777504805 | 15.56° C | 43% | 1017.5 hPa | 0 mm | - | 90 W/m² | - |
| 1777504505 | 16.11° C | 43% | 1017.6 hPa | 0 mm | - | 296 W/m² | - |
| 1777504205 | 16.11° C | 42% | 1017.6 hPa | 0 mm | - | 310 W/m² | - |
| 1777503905 | 16.11° C | 43% | 1017.5 hPa | 0 mm | - | 274 W/m² | - |
| 1777503616 | 16.11° C | 44% | 1017.6 hPa | 0 mm | - | 344 W/m² | - |
| 1777503305 | 16.11° C | 45% | 1017.6 hPa | 0 mm | - | 364 W/m² | - |
| 1777503008 | 16.11° C | 43% | 1017.5 hPa | 0 mm | - | 387 W/m² | - |
| 1777502704 | 16.11° C | 44% | 1017.5 hPa | 0 mm | - | 402 W/m² | - |
| 1777502405 | 16.11° C | 46% | 1017.5 hPa | 0 mm | - | 423 W/m² | - |
| 1777502104 | 16.11° C | 44% | 1017.5 hPa | 0 mm | - | 431 W/m² | - |
| 1777501805 | 16.11° C | 44% | 1017.5 hPa | 0 mm | - | 434 W/m² | - |
| 1777501505 | 15.56° C | 43% | 1017.5 hPa | 0 mm | - | 479 W/m² | - |
| 1777501205 | 15.56° C | 46% | 1017.4 hPa | 0 mm | - | 473 W/m² | - |
| 1777500905 | 16.11° C | 44% | 1017.4 hPa | 0 mm | - | 528 W/m² | - |
| 1777500604 | 16.11° C | 44% | 1017.4 hPa | 0 mm | - | 431 W/m² | - |
| 1777500304 | 16.11° C | 45% | 1017.4 hPa | 0 mm | - | 515 W/m² | - |
| 1777500004 | 16.11° C | 47% | 1017.5 hPa | 0 mm | - | 561 W/m² | - |
| 1777499705 | 16.11° C | 44% | 1017.5 hPa | 0 mm | - | 484 W/m² | - |
| 1777499406 | 16.11° C | 46% | 1017.5 hPa | 0 mm | - | 540 W/m² | - |
| 1777499105 | 16.11° C | 45% | 1017.6 hPa | 0 mm | - | 588 W/m² | - |
| 1777498806 | 15.56° C | 45% | 1017.7 hPa | 0 mm | - | 622 W/m² | - |
* Rain latest hour (hover to see other rain measurements)
** Current wind speed in m/s (hover to see current wind gust speed)